Weather History for Robinson, IL

Change the Weather History Date:

Tuesday, February 14, 2012

  Actual Average (KLWV) Record (KLWV)
Temperature  
Mean Temperature 33 °F 35 °F  
Max Temperature 36 °F 44 °F 57 °F (2001)
Min Temperature 30 °F 27 °F 12 °F (2014)
Degree Days  
Heating Degree Days 32 30  
Month to date heating degree days 440  
Since 1 July heating degree days 3291  
Cooling Degree Days 0 0  
Month to date cooling degree days 0  
Year to date cooling degree days 0  
Moisture  
Dew Point 31 °F    
Average Humidity 88    
Maximum Humidity 96    
Minimum Humidity 78    
Precipitation  
Precipitation 0.02 in 0.08 in 1.33 in (1989)
Month to date precipitation 1.09  
Year to date precipitation 3.47  
Sea Level Pressure  
Sea Level Pressure 29.96 in    
Wind  
Wind Speed 6 mph (SSW)    
Max Wind Speed 12 mph    
Max Gust Speed -    
Visibility 7 miles    
Events Snow    
T = Trace of Precipitation, MM = Missing Value Source: NWS Daily Summary

Daily Weather History Graph

Daily Weather History Graph

Search for Another Location

Airport:

Trip Planner

Search our weather history database for the weather conditions in past years. The results will help you decide how hot, cold, wet, or windy it might be!

Date:

Astronomy

Feb. 14, 2012 Rise Set
Actual Time 6:43 AM CST 5:26 PM CST
Civil Twilight 6:16 AM CST 5:53 PM CST
Nautical Twilight 5:45 AM CST 6:25 PM CST
Astronomical Twilight 5:14 AM CST 6:56 PM CST
Moon 12:27 AM CST (2/14) 10:32 AM CST (2/14)
Length of Visible Light 11h 37m
Length of Day
10h 42m
Waning Gibbous, 50% of the Moon is Illuminated
Feb 14
Waning Gibbous
Feb 21
New
Feb 29
First Quarter
Mar 8
Full
Mar 14
Last Quarter

Hourly Weather History & Observations

Time (CST) Temp. Windchill Dew Point Humidity Pressure Visibility Wind Dir Wind Speed Gust Speed Precip Events Conditions
12:15 AM 30.9 °F 25.2 °F 28.8 °F 92% 29.94 in 2.5 mi SE 5.8 mph - N/A Snow Light Snow
12:55 AM 31.1 °F 25.4 °F 29.3 °F 93% 29.92 in 3.0 mi SSE 5.8 mph - N/A Snow Light Snow
1:15 AM 31.1 °F 24.5 °F 29.3 °F 93% 29.91 in 3.0 mi SSE 6.9 mph - 0.01 in Snow Light Snow
1:35 AM 31.5 °F 24.9 °F 29.3 °F 92% 29.91 in 3.0 mi SSE 6.9 mph - 0.01 in Snow Light Snow
2:15 AM 32.0 °F 25.6 °F 30.0 °F 92% 29.90 in 5.0 mi SSE 6.9 mph - N/A   Overcast
2:55 AM 32.0 °F 26.4 °F 30.2 °F 93% 29.89 in 5.0 mi South 5.8 mph - N/A   Overcast
3:15 AM 32.0 °F 26.4 °F 30.2 °F 93% 29.89 in 5.0 mi SSE 5.8 mph - N/A   Overcast
3:35 AM 32.0 °F 25.6 °F 30.2 °F 93% 29.88 in 5.0 mi SSE 6.9 mph - N/A   Overcast
3:55 AM 32.0 °F 26.4 °F 30.6 °F 94% 29.88 in 4.0 mi South 5.8 mph - N/A Snow Light Snow
4:15 AM 32.0 °F 26.4 °F 30.6 °F 94% 29.88 in 3.0 mi South 5.8 mph - N/A Snow Light Snow
4:35 AM 32.0 °F 28.7 °F 30.7 °F 95% 29.88 in 2.0 mi South 3.5 mph - N/A Snow Light Snow
4:55 AM 32.0 °F 28.7 °F 30.7 °F 95% 29.88 in 1.5 mi South 3.5 mph - N/A Snow Light Snow
5:15 AM 32.0 °F - 30.9 °F 96% 29.88 in 2.0 mi Calm Calm - N/A Snow Light Snow
5:35 AM 32.0 °F - 30.7 °F 95% 29.88 in 2.5 mi Calm Calm - N/A Snow Light Snow
6:15 AM 32.0 °F - 30.9 °F 96% 29.89 in 3.0 mi Calm Calm - N/A Snow Light Snow
6:35 AM 32.2 °F - 31.1 °F 96% 29.90 in 2.5 mi Calm Calm - N/A Snow Light Snow
6:55 AM 32.4 °F - 31.1 °F 95% 29.90 in 3.0 mi Calm Calm - N/A Snow Light Snow
7:15 AM 32.5 °F 27.1 °F 31.5 °F 96% 29.91 in 2.5 mi SSW 5.8 mph - N/A Snow Light Snow
7:35 AM 32.9 °F 28.5 °F 31.6 °F 95% 29.92 in 2.5 mi SSW 4.6 mph - N/A Snow Light Snow
7:55 AM 32.9 °F 27.5 °F 31.6 °F 95% 29.92 in 3.0 mi SSW 5.8 mph - 0.01 in   Overcast
8:15 AM 33.1 °F 27.7 °F 31.5 °F 94% 29.92 in 7.0 mi SW 5.8 mph - N/A   Overcast
8:35 AM 33.4 °F 28.1 °F 31.5 °F 92% 29.93 in 10.0 mi SSW 5.8 mph - N/A   Overcast
8:55 AM 33.8 °F 28.6 °F 31.5 °F 91% 29.93 in 10.0 mi SW 5.8 mph - N/A   Overcast
9:15 AM 34.0 °F 28.8 °F 31.5 °F 90% 29.93 in 10.0 mi SW 5.8 mph - N/A   Overcast
9:35 AM 34.7 °F 28.8 °F 31.5 °F 88% 29.94 in 10.0 mi SSW 6.9 mph - N/A   Overcast
9:55 AM 34.7 °F 28.1 °F 31.1 °F 87% 29.95 in 10.0 mi SW 8.1 mph - N/A   Overcast
10:15 AM 34.9 °F 29.0 °F 31.1 °F 86% 29.95 in 10.0 mi SW 6.9 mph - N/A   Overcast
10:35 AM 34.9 °F 26.6 °F 30.9 °F 85% 29.96 in 10.0 mi WSW 11.5 mph - N/A   Overcast
10:55 AM 35.1 °F 27.9 °F 31.1 °F 85% 29.96 in 10.0 mi WSW 9.2 mph - N/A   Overcast
11:15 AM 35.1 °F 28.6 °F 31.1 °F 85% 29.96 in 10.0 mi WSW 8.1 mph - N/A   Overcast
11:35 AM 35.2 °F 30.3 °F 31.1 °F 85% 29.96 in 10.0 mi WSW 5.8 mph - N/A   Overcast
11:55 AM 35.6 °F 29.9 °F 31.1 °F 84% 29.96 in 10.0 mi WSW 6.9 mph - N/A   Overcast
12:15 PM 35.6 °F 29.2 °F 31.1 °F 84% 29.96 in 10.0 mi WSW 8.1 mph - N/A   Overcast
12:35 PM 36.0 °F 30.3 °F 31.5 °F 84% 29.95 in 10.0 mi WSW 6.9 mph - N/A   Overcast
12:55 PM 35.8 °F 30.1 °F 31.5 °F 84% 29.95 in 10.0 mi WSW 6.9 mph - N/A   Overcast
1:15 PM 36.1 °F 30.6 °F 31.6 °F 84% 29.95 in 10.0 mi SW 6.9 mph - N/A   Overcast
1:35 PM 36.1 °F 30.6 °F 31.8 °F 84% 29.95 in 10.0 mi WSW 6.9 mph - N/A   Overcast
1:55 PM 36.1 °F 29.9 °F 31.5 °F 83% 29.96 in 10.0 mi WSW 8.1 mph - N/A   Overcast
2:15 PM 36.1 °F 30.6 °F 31.5 °F 83% 29.97 in 10.0 mi WSW 6.9 mph - N/A   Overcast
2:35 PM 36.1 °F 31.4 °F 31.1 °F 82% 29.97 in 10.0 mi WSW 5.8 mph - N/A   Overcast
2:55 PM 36.5 °F 30.3 °F 31.8 °F 83% 29.98 in 10.0 mi WSW 8.1 mph - N/A   Overcast
3:15 PM 36.1 °F 31.4 °F 31.6 °F 84% 29.99 in 10.0 mi SW 5.8 mph - N/A   Overcast
3:35 PM 36.1 °F 30.6 °F 31.6 °F 84% 30.00 in 10.0 mi WSW 6.9 mph - N/A   Overcast
3:55 PM 36.1 °F 30.6 °F 31.8 °F 84% 30.01 in 10.0 mi WSW 6.9 mph - N/A   Overcast
4:15 PM 36.0 °F 31.1 °F 31.8 °F 85% 30.01 in 10.0 mi SW 5.8 mph - N/A   Overcast
4:35 PM 35.6 °F 31.7 °F 31.6 °F 85% 30.02 in 10.0 mi SW 4.6 mph - N/A   Overcast
4:55 PM 35.6 °F 31.7 °F 31.5 °F 85% 30.03 in 10.0 mi SW 4.6 mph - N/A   Overcast
5:15 PM 35.1 °F 32.2 °F 31.6 °F 87% 30.03 in 10.0 mi WSW 3.5 mph - N/A   Overcast
5:35 PM 35.1 °F 31.0 °F 31.1 °F 85% 30.05 in 10.0 mi SW 4.6 mph - N/A   Overcast
5:55 PM 35.6 °F 29.9 °F 30.2 °F 81% 30.06 in 10.0 mi SW 6.9 mph - N/A   Overcast
6:15 PM 35.6 °F 30.7 °F 29.8 °F 80% 30.06 in 10.0 mi SW 5.8 mph - N/A   Overcast
6:35 PM 35.8 °F 30.1 °F 29.5 °F 78% 30.06 in 10.0 mi SW 6.9 mph - N/A   Overcast
7:15 PM 34.7 °F - 30.0 °F 83% 30.06 in 10.0 mi Calm Calm - N/A   Overcast
7:35 PM 34.2 °F 29.0 °F 30.6 °F 87% 30.07 in 10.0 mi South 5.8 mph - N/A   Overcast
7:55 PM 34.0 °F 28.8 °F 30.9 °F 89% 30.07 in 10.0 mi SE 5.8 mph - N/A   Overcast
8:55 PM 33.8 °F 30.8 °F 31.1 °F 90% 30.09 in 7.0 mi SE 3.5 mph - N/A   Overcast
9:15 PM 34.2 °F - 31.3 °F 89% 30.09 in 7.0 mi Calm Calm - N/A   Overcast
9:35 PM 34.2 °F 30.0 °F 31.1 °F 89% 30.10 in 10.0 mi ESE 4.6 mph - N/A   Overcast
9:55 PM 34.5 °F 31.6 °F 31.1 °F 87% 30.10 in 10.0 mi ESE 3.5 mph - N/A   Overcast
10:15 PM 34.3 °F 30.2 °F 31.5 °F 89% 30.11 in 7.0 mi SE 4.6 mph - N/A   Overcast
10:35 PM 34.2 °F 30.0 °F 31.1 °F 89% 30.11 in 7.0 mi SE 4.6 mph - N/A   Overcast
11:15 PM 33.4 °F 29.1 °F 30.9 °F 90% 30.11 in 10.0 mi SE 4.6 mph - N/A   Overcast
11:35 PM 33.8 °F 29.6 °F 30.7 °F 89% 30.11 in 10.0 mi SE 4.6 mph - N/A   Overcast
11:55 PM 33.8 °F 29.6 °F 30.4 °F 87% 30.11 in 10.0 mi SE 4.6 mph - N/A   Mostly Cloudy